カタログに戻る

BREEZE-M DEB

TANK

運用中HEO
NORAD 40884·DEBRIS·🇷🇺 Russia

打ち上げ Aug 28, 2015 から Baikonur Cosmodrome

Loading…

次のパス (今後24時間)

TLE

最新Source: Space-Track

元期: Sep 13, 2026, 21:41 UTC

1 40884U 15042C   26256.90410551  .00000506  00000-0  25485-3 0  9990
2 40884  50.7797 309.8862 5113938  94.3364 323.1090  5.36462558213497

AllMySatでBREEZE-M DEBをリアルタイム追跡

Download on the App Store